Location: Noverd
(38.0910°N, 121.6877°W)
Time: 00:42:30
(UTC+00:00)

H-2A R/B - Pass Details

Date: 13 February 2026
Orbit: 518 x 533 km, 98.2° (Epoch: 9 March)

Event Time Altitude Azimuth Distance (km) Brightness Sun altitude
Rises 13:35:01 0° 1° (N) 2,667 6.8 -17.1°
Reaches altitude 10° 13:37:18 10° 350° (N) 1,771 5.8 -16.6°
Enters shadow 13:40:07 28° 305° (NW) 1,003 4.2 -16.1°
